Sterling, IL

4:58 PM CDT on April 27, 2017 (GMT -0500)
Whiteside County-Bittorf

Weather History for KSQI - April, 2013

Change the Weather History Date:

Thursday, April 25, 2013

  Actual Average Record
Temperature  
Mean Temperature 45 °F -  
Max Temperature 53 °F 62 °F 84 °F (2016)
Min Temperature 37 °F 41 °F 33 °F (2002)
Degree Days  
Heating Degree Days 20    
Moisture  
Dew Point 28 °F    
Average Humidity 56    
Maximum Humidity 87    
Minimum Humidity 30    
Precipitation  
Precipitation 0.02 in - - ()
Sea Level Pressure  
Sea Level Pressure 30.22 in    
Wind  
Wind Speed 12 mph (West)    
Max Wind Speed 25 mph    
Max Gust Speed 38 mph    
Visibility 10 miles    
Events      
Averages and records for this station are not official NWS values.
T = Trace of Precipitation, MM = Missing Value Source: NWS Daily Summary

Daily Weather History Graph

Daily Weather History Graph

Search for Another Location

Airport or City:

Trip Planner

Search our weather history database for the weather conditions in past years. The results will help you decide how hot, cold, wet, or windy it might be!

Date:

Astronomy

Apr. 25, 2013 Rise Set
Actual Time 6:03 AM CDT 7:50 PM CDT
Civil Twilight 5:33 AM CDT 8:20 PM CDT
Nautical Twilight 4:57 AM CDT 8:56 PM CDT
Astronomical Twilight 4:18 AM CDT 9:35 PM CDT
Moon 8:04 PM CDT (4/25) 5:46 AM CDT (4/25)
Length of Visible Light 14h 47m
Length of Day
13h 47m
Full, 100% of the Moon is Illuminated
Apr 25
Full
Apr 25
Full
May 2
Last Quarter
May 9
New
May 17
First Quarter

Hourly Weather History & Observations

Time (CDT) Temp. Windchill Dew Point Humidity Pressure Visibility Wind Dir Wind Speed Gust Speed Precip Events Conditions
12:15 AM 42.8 °F 38.6 °F 30.2 °F 61% 30.10 in 10.0 mi SW 6.9 mph - N/A   Scattered Clouds
12:35 AM 42.8 °F 38.6 °F 32.0 °F 66% 30.09 in 10.0 mi SW 6.9 mph - N/A   Overcast
12:55 AM 42.8 °F 37.0 °F 32.0 °F 66% 30.09 in 10.0 mi WSW 10.4 mph - N/A   Overcast
1:15 AM 42.8 °F 37.0 °F 32.0 °F 66% 30.08 in 10.0 mi WSW 10.4 mph - N/A   Overcast
1:35 AM 44.6 °F 38.4 °F 32.0 °F 61% 30.09 in 10.0 mi WSW 12.7 mph 21.9 mph N/A   Overcast
1:55 AM 44.6 °F 37.8 °F 32.0 °F 61% 30.08 in 10.0 mi WSW 15.0 mph 20.7 mph N/A   Overcast
2:15 AM 41.0 °F 30.9 °F 35.6 °F 81% 30.10 in 9.0 mi West 24.2 mph 36.8 mph 0.01 in   Overcast
2:35 AM 41.0 °F 33.9 °F 35.6 °F 81% 30.08 in 10.0 mi West 12.7 mph - 0.02 in   Overcast
2:55 AM 41.0 °F 34.3 °F 37.4 °F 87% 30.08 in 10.0 mi West 11.5 mph - 0.02 in   Overcast
3:15 AM 39.2 °F 33.0 °F 35.6 °F 87% 30.08 in 10.0 mi WSW 9.2 mph - N/A   Mostly Cloudy
3:35 AM 39.2 °F 33.0 °F 35.6 °F 87% 30.08 in 10.0 mi WSW 9.2 mph - N/A   Mostly Cloudy
3:55 AM 39.2 °F 32.5 °F 35.6 °F 87% 30.09 in 10.0 mi WSW 10.4 mph 17.3 mph N/A   Partly Cloudy
4:15 AM 39.2 °F 32.5 °F 35.6 °F 87% 30.09 in 10.0 mi WSW 10.4 mph - N/A   Mostly Cloudy
4:35 AM 39.2 °F 31.6 °F 35.6 °F 87% 30.10 in 10.0 mi WSW 12.7 mph - N/A   Overcast
4:55 AM 41.0 °F 32.2 °F 35.6 °F 81% 30.10 in 10.0 mi West 18.4 mph 25.3 mph N/A   Scattered Clouds
5:15 AM 39.2 °F 30.5 °F 35.6 °F 87% 30.11 in 10.0 mi West 16.1 mph - N/A   Mostly Cloudy
5:35 AM 39.2 °F 31.6 °F 35.6 °F 87% 30.11 in 10.0 mi WNW 12.7 mph - N/A   Overcast
5:55 AM 39.2 °F 29.0 °F 33.8 °F 81% 30.12 in 10.0 mi West 21.9 mph 28.8 mph N/A   Mostly Cloudy
6:15 AM 37.4 °F 27.5 °F 33.8 °F 87% 30.13 in 10.0 mi West 18.4 mph 25.3 mph N/A   Partly Cloudy
6:35 AM 37.4 °F 27.2 °F 30.2 °F 75% 30.14 in 10.0 mi WNW 19.6 mph 27.6 mph N/A   Partly Cloudy
6:55 AM 37.4 °F 26.4 °F 28.4 °F 70% 30.15 in 10.0 mi WNW 23.0 mph 29.9 mph N/A   Clear
7:15 AM 37.4 °F 26.9 °F 28.4 °F 70% 30.16 in 10.0 mi WNW 20.7 mph 29.9 mph N/A   Clear
7:35 AM 37.4 °F 26.4 °F 26.6 °F 65% 30.17 in 10.0 mi WNW 23.0 mph 29.9 mph N/A   Clear
7:55 AM 37.4 °F 27.5 °F 26.6 °F 65% 30.18 in 10.0 mi NW 18.4 mph 29.9 mph N/A   Clear
8:15 AM 39.2 °F 30.5 °F 26.6 °F 61% 30.19 in 10.0 mi NW 16.1 mph 28.8 mph N/A   Clear
8:35 AM 39.2 °F 28.3 °F 24.8 °F 56% 30.20 in 10.0 mi WNW 25.3 mph 38.0 mph N/A   Clear
8:55 AM 39.2 °F 30.5 °F 26.6 °F 61% 30.21 in 10.0 mi NW 16.1 mph 29.9 mph N/A   Clear
9:15 AM 41.0 °F 31.6 °F 24.8 °F 53% 30.23 in 10.0 mi NW 20.7 mph 31.1 mph N/A   Clear
9:35 AM 42.8 °F 34.3 °F 24.8 °F 49% 30.23 in 10.0 mi WNW 19.6 mph 26.5 mph N/A   Clear
9:55 AM 42.8 °F 34.5 °F 24.8 °F 49% 30.24 in 10.0 mi WNW 18.4 mph 24.2 mph N/A   Clear
10:15 AM 42.8 °F 34.3 °F 24.8 °F 49% 30.25 in 10.0 mi WNW 19.6 mph 25.3 mph N/A   Clear
10:35 AM 44.6 °F 36.9 °F 24.8 °F 46% 30.26 in 10.0 mi WNW 18.4 mph 25.3 mph N/A   Clear
10:55 AM 44.6 °F 37.2 °F 26.6 °F 49% 30.27 in 10.0 mi WNW 17.3 mph 23.0 mph N/A   Clear
11:15 AM 44.6 °F 37.4 °F 26.6 °F 49% 30.28 in 10.0 mi NW 16.1 mph 24.2 mph N/A   Clear
11:35 AM 46.4 °F 40.4 °F 26.6 °F 46% 30.28 in 10.0 mi NW 13.8 mph 23.0 mph N/A   Clear
11:55 AM 46.4 °F 41.1 °F 28.4 °F 50% 30.28 in 10.0 mi WNW 11.5 mph 16.1 mph N/A   Clear
12:15 PM 48.2 °F - 26.6 °F 43% 30.29 in 10.0 mi West 15.0 mph 21.9 mph N/A   Clear
12:35 PM 48.2 °F - 26.6 °F 43% 30.29 in 10.0 mi West 13.8 mph - N/A   Clear
12:55 PM 48.2 °F - 26.6 °F 43% 30.29 in 10.0 mi West 12.7 mph 17.3 mph N/A   Clear
1:15 PM 50.0 °F - 28.4 °F 43% 30.29 in 10.0 mi West 11.5 mph - N/A   Clear
1:35 PM 50.0 °F - 26.6 °F 40% 30.29 in 10.0 mi West 12.7 mph 19.6 mph N/A   Clear
1:55 PM 51.8 °F - 26.6 °F 38% 30.29 in 10.0 mi West 9.2 mph 19.6 mph N/A   Clear
2:15 PM 51.8 °F - 26.6 °F 38% 30.30 in 10.0 mi WNW 15.0 mph 21.9 mph N/A   Clear
2:35 PM 51.8 °F - 26.6 °F 38% 30.29 in 10.0 mi West 13.8 mph 19.6 mph N/A   Clear
2:55 PM 51.8 °F - 24.8 °F 35% 30.29 in 10.0 mi WNW 17.3 mph 20.7 mph N/A   Clear
3:15 PM 53.6 °F - 26.6 °F 35% 30.30 in 10.0 mi WNW 13.8 mph 23.0 mph N/A   Clear
3:35 PM 51.8 °F - 24.8 °F 35% 30.29 in 10.0 mi West 9.2 mph 18.4 mph N/A   Clear
3:55 PM 53.6 °F - 26.6 °F 35% 30.28 in 10.0 mi WNW 10.4 mph 18.4 mph N/A   Clear
4:15 PM 53.6 °F - 24.8 °F 33% 30.28 in 10.0 mi West 12.7 mph 17.3 mph N/A   Clear
4:35 PM 53.6 °F - 24.8 °F 33% 30.28 in 10.0 mi West 11.5 mph - N/A   Clear
4:55 PM 53.6 °F - 23.0 °F 30% 30.28 in 10.0 mi WNW 13.8 mph 20.7 mph N/A   Clear
5:15 PM 53.6 °F - 23.0 °F 30% 30.27 in 10.0 mi West 9.2 mph - N/A   Clear
5:35 PM 53.6 °F - 23.0 °F 30% 30.28 in 10.0 mi West 9.2 mph 18.4 mph N/A   Clear
5:55 PM 51.8 °F - 21.2 °F 30% 30.28 in 10.0 mi West 8.1 mph 17.3 mph N/A   Clear
6:15 PM 51.8 °F - 23.0 °F 33% 30.28 in 10.0 mi West 11.5 mph - N/A   Clear
6:35 PM 51.8 °F - 23.0 °F 33% 30.28 in 10.0 mi West 11.5 mph - N/A   Clear
6:55 PM 51.8 °F - 21.2 °F 30% 30.28 in 10.0 mi West 6.9 mph - N/A   Clear
7:15 PM 48.2 °F - 24.8 °F 40% 30.27 in 10.0 mi West 6.9 mph - N/A   Clear
7:35 PM 48.2 °F - 26.6 °F 43% 30.28 in 10.0 mi West 5.8 mph - N/A   Clear
7:55 PM 46.4 °F - 26.6 °F 46% 30.27 in 10.0 mi Calm Calm - N/A   Clear
8:15 PM 44.6 °F - 26.6 °F 49% 30.27 in 10.0 mi Calm Calm - N/A   Clear
8:35 PM 44.6 °F 42.2 °F 24.8 °F 46% 30.27 in 10.0 mi South 4.6 mph - N/A   Clear
8:55 PM 44.6 °F 43.1 °F 23.0 °F 43% 30.28 in 10.0 mi South 3.5 mph - N/A   Clear
9:15 PM 44.6 °F 42.2 °F 23.0 °F 43% 30.29 in 10.0 mi South 4.6 mph - N/A   Clear
9:35 PM 44.6 °F 41.4 °F 26.6 °F 49% 30.30 in 10.0 mi South 5.8 mph - N/A   Clear
9:55 PM 44.6 °F 42.2 °F 26.6 °F 49% 30.31 in 10.0 mi South 4.6 mph - N/A   Clear
10:15 PM 44.6 °F 41.4 °F 26.6 °F 49% 30.31 in 10.0 mi SSE 5.8 mph - N/A   Clear
10:35 PM 42.8 °F 40.1 °F 26.6 °F 53% 30.31 in 10.0 mi SE 4.6 mph - N/A   Clear
10:55 PM 39.2 °F 35.9 °F 33.8 °F 81% 30.30 in 10.0 mi SSE 4.6 mph - N/A   Clear
11:15 PM 37.4 °F 32.8 °F 32.0 °F 81% 30.30 in 10.0 mi SE 5.8 mph - N/A   Clear
11:35 PM 39.2 °F 35.9 °F 33.8 °F 81% 30.30 in 10.0 mi SE 4.6 mph - N/A   Clear
11:55 PM 39.2 °F 35.0 °F 33.8 °F 81% 30.30 in 10.0 mi SE 5.8 mph - N/A   Clear